EW2804 Weather Reports


time (UTC)temp
C
wind
direction
speed
KPH
gust
KPH
rain 1hr
cm
rain 24hr
cm
rain mn
cm
humidity
%
barometer
mb
20260903165206 31 250 3.2 12.9 0.00 0.00 0.00 66 1011.3
20260903164225 30 142 3.2 9.7 0.00 0.00 0.00 67 1011.3
20260903163216 30 184 3.2 12.9 0.00 0.00 0.00 68 1011.4
20260903162143 29 153 3.2 12.9 0.00 0.00 0.00 69 1011.4
20260903161158 29 188 3.2 9.7 0.00 0.00 0.00 70 1011.4
20260903160202 29 127 3.2 9.7 0.00 0.00 0.00 70 1011.4
20260903153938 29 273 3.2 9.7 0.00 0.00 0.00 70 1011.3
20260903152928 28 167 1.6 12.9 0.00 0.00 0.00 73 1011.3
20260903151945 28 133 3.2 12.9 0.00 0.00 0.00 71 1011.3
20260903150933 28 133 1.6 9.7 0.00 0.00 0.00 72 1011.4
20260903145929 27 193 1.6 8.0 0.00 0.00 0.00 73 1011.3
20260903143750 28 127 1.6 12.9 0.00 0.00 0.00 73 1011.5
20260903142730 27 136 3.2 11.3 0.00 0.00 0.00 73 1011.5
20260903141714 27 122 3.2 11.3 0.00 0.00 0.00 73 1011.5
20260903140715 27 107 1.6 11.3 0.00 0.00 0.00 73 1011.5
20260903135658 27 147 1.6 9.7 0.00 0.00 0.00 73 1011.4
20260903134650 27 170 1.6 6.4 0.00 0.00 0.00 73 1011.4
20260903133708 27 130 0.0 3.2 0.00 0.00 0.00 73 1011.3
20260903132702 26 130 0.0 4.8 0.00 0.00 0.00 74 1011.3
20260903131638 26 119 0.0 0.0 0.00 0.00 0.00 76 1011.3
20260903130630 25 101 0.0 4.8 0.00 0.00 0.00 78 1011.4
20260903125644 25 140 0.0 3.2 0.00 0.00 0.00 81 1011.3
20260903124622 24 141 0.0 0.0 0.00 0.00 0.00 81 1011.2
20260903123621 24 141 0.0 0.0 0.00 0.00 0.00 80 1011.3
20260903122604 24 142 0.0 0.0 0.00 0.00 0.00 80 1011.0
20260903121534 24 142 0.0 0.0 0.00 0.00 0.00 80 1010.9
20260903120538 25 144 0.0 0.0 0.00 0.00 0.00 80 1010.7
20260903115532 25 146 0.0 0.0 0.00 0.00 0.00 79 1010.7
20260903114500 25 146 0.0 0.0 0.00 0.00 0.00 79 1010.7
20260903113502 25 146 0.0 0.0 0.00 0.00 0.00 78 1010.8
20260903112458 25 146 0.0 0.0 0.00 0.00 0.00 78 1010.8
20260903111505 25 146 0.0 0.0 0.00 0.00 0.00 77 1010.5
20260903110453 25 146 0.0 0.0 0.00 0.00 0.00 76 1010.4
20260903105437 26 146 0.0 1.6 0.00 0.00 0.00 76 1010.3
20260903104443 26 146 0.0 0.0 0.00 0.00 0.00 76 1010.5
20260903103444 26 146 0.0 0.0 0.00 0.00 0.00 77 1010.6
20260903095045 25 146 0.0 0.0 0.00 0.00 0.00 78 1010.5
20260903094019 25 146 0.0 0.0 0.00 0.00 0.00 78 1010.6
20260903093035 25 146 0.0 0.0 0.00 0.00 0.00 76 1010.5
20260903092010 25 146 0.0 0.0 0.00 0.00 0.00 75 1010.4
20260903084703 26 146 0.0 0.0 0.00 0.00 0.00 74 1010.5
20260903082503 26 148 0.0 4.8 0.00 0.00 0.00 74 1010.4
20260903081439 26 98 0.0 1.6 0.00 0.00 0.00 74 1010.5
20260903075302 26 121 0.0 3.2 0.00 0.00 0.00 74 1010.6
20260903074236 26 121 0.0 0.0 0.00 0.00 0.00 73 1010.6
20260903073245 26 123 0.0 3.2 0.00 0.00 0.00 72 1010.5
20260903072254 26 177 1.6 4.8 0.00 0.00 0.00 72 1010.5
20260903071246 27 141 0.0 3.2 0.00 0.00 0.00 71 1010.5
20260903070251 27 127 0.0 0.0 0.00 0.00 0.00 70 1010.6
20260903065310 27 125 0.0 3.2 0.00 0.00 0.00 70 1010.6
20260903064301 27 117 0.0 9.7 0.00 0.00 0.00 69 1010.7
20260903063252 27 126 0.0 9.7 0.00 0.00 0.00 69 1010.8
20260903062233 27 193 0.0 0.0 0.00 0.00 0.00 68 1010.9
20260903061223 27 188 0.0 9.7 0.00 0.00 0.00 67 1011.0
20260903060200 28 323 1.6 16.1 0.00 0.00 0.00 66 1011.1
20260903052901 28 74 1.6 19.3 0.00 0.00 0.00 62 1011.2
20260903050728 29 128 0.0 4.8 0.00 0.00 0.00 61 1011.0
20260903045707 29 136 0.0 0.0 0.00 0.00 0.00 60 1011.0
20260903044648 29 130 0.0 6.4 0.00 0.00 0.00 60 1010.9
20260903042600 30 172 0.0 6.4 0.00 0.00 0.00 59 1011.0
20260903040427 30 147 0.0 4.8 0.00 0.00 0.00 57 1011.1
20260903035432 30 148 1.6 12.9 0.00 0.00 0.00 56 1011.0
20260903034432 30 116 3.2 12.9 0.00 0.00 0.00 55 1011.0
20260903032235 31 103 1.6 16.1 0.00 0.00 0.00 53 1010.8
20260903031240 32 125 1.6 16.1 0.00 0.00 0.00 52 1010.7
20260903025035 32 123 3.2 16.1 0.00 0.00 0.00 48 1010.4
20260903024025 32 134 1.6 16.1 0.00 0.00 0.00 48 1010.2
20260903022959 32 97 3.2 11.3 0.00 0.00 0.00 48 1010.1
20260903022019 33 142 3.2 12.9 0.00 0.00 0.00 48 1010.0
20260903021032 33 159 3.2 12.9 0.00 0.00 0.00 48 1009.8
20260903020033 33 113 1.6 9.7 0.00 0.00 0.00 48 1009.8
20260903015037 33 159 3.2 11.3 0.00 0.00 0.00 48 1009.6
20260903014030 33 137 1.6 11.3 0.00 0.00 0.00 48 1009.6
20260903013037 33 163 1.6 8.0 0.00 0.00 0.00 48 1009.5
20260903012030 33 165 1.6 12.9 0.00 0.00 0.00 47 1009.3
20260903011029 33 108 1.6 12.9 0.00 0.00 0.00 46 1009.2
20260903010046 34 161 3.2 17.7 0.00 0.00 0.00 46 1009.2
20260903005101 34 221 3.2 24.1 0.00 0.00 0.00 45 1009.2
20260903004054 35 150 3.2 24.1 0.00 0.00 0.00 43 1009.2
20260903003113 35 115 3.2 16.1 0.00 0.00 0.00 41 1009.1
20260903002126 36 37 1.6 9.7 0.00 0.00 0.00 39 1009.0
20260903000038 36 115 1.6 11.3 0.00 0.00 0.00 37 1008.9
20260902235059 37 84 1.6 11.3 0.00 0.00 0.00 37 1008.9
20260902234110 37 128 3.2 9.7 0.00 0.00 0.00 35 1008.9
20260902233056 37 128 1.6 6.4 0.00 0.00 0.00 35 1008.9
20260902232040 37 57 1.6 9.7 0.00 0.00 0.00 35 1008.9
20260902225915 37 55 3.2 12.9 0.00 0.00 0.00 35 1008.8
20260902224847 37 57 3.2 11.3 0.00 0.00 0.00 35 1008.9
20260902223837 38 355 1.6 9.7 0.00 0.00 0.00 35 1009.0
20260902222847 37 207 1.6 8.0 0.00 0.00 0.00 36 1008.9
20260902221848 37 140 3.2 11.3 0.00 0.00 0.00 36 1009.1
20260902220855 37 154 3.2 16.1 0.00 0.00 0.00 36 1009.2
20260902215828 37 45 4.8 16.1 0.00 0.00 0.00 37 1009.2
20260902214819 38 343 3.2 11.3 0.00 0.00 0.00 36 1009.3
20260902213816 37 57 1.6 12.9 0.00 0.00 0.00 36 1009.5
20260902212837 37 295 3.2 12.9 0.00 0.00 0.00 36 1009.6
20260902211853 37 34 0.0 4.8 0.00 0.00 0.00 35 1009.6
20260902210914 37 148 3.2 11.3 0.00 0.00 0.00 37 1009.7
20260902204744 37 153 1.6 12.9 0.00 0.00 0.00 37 1010.0
20260902203708 37 350 3.2 12.9 0.00 0.00 0.00 38 1010.2
20260902201459 37 44 3.2 11.3 0.00 0.00 0.00 38 1010.5
20260902200440 36 38 3.2 12.9 0.00 0.00 0.00 38 1010.7
20260902195417 36 28 3.2 12.9 0.00 0.00 0.00 40 1010.8
20260902194421 36 355 3.2 11.3 0.00 0.00 0.00 40 1011.0
20260902192323 36 57 3.2 9.7 0.00 0.00 0.00 41 1011.4
20260902191308 36 32 1.6 12.9 0.00 0.00 0.00 41 1011.6
20260902190244 36 84 3.2 16.1 0.00 0.00 0.00 41 1011.7
20260902185227 36 22 1.6 9.7 0.00 0.00 0.00 42 1011.8
20260902183102 35 32 1.6 11.3 0.00 0.00 0.00 43 1012.1
20260902182106 35 144 3.2 9.7 0.00 0.00 0.00 44 1012.3
20260902181058 35 65 1.6 9.7 0.00 0.00 0.00 45 1012.6
20260902180052 35 136 3.2 8.0 0.00 0.00 0.00 44 1012.7
20260902175112 35 103 1.6 8.0 0.00 0.00 0.00 45 1012.9
20260902174113 35 36 1.6 11.3 0.00 0.00 0.00 46 1013.1
20260902173103 34 120 3.2 11.3 0.00 0.00 0.00 45 1013.3
20260902172124 34 130 3.2 11.3 0.00 0.00 0.00 45 1013.5
20260902170006 33 131 3.2 12.9 0.00 0.00 0.00 48 1013.7